Find Xingchi-1 02A

NORAD ID: 58496 Int'l Des: 2023-187 Owner: TYSK Country: CN operational
LEOCIRCULARRETROGRADESSO

Live Position

Loading 3D Globe...

About Xingchi-1 02A

Description loading...

Upcoming Passes

Passes for default location (London). Set your location on the main map for personalized predictions.

Altitude History

Loading altitude history...

Two-Line Element Set

1 58496U 23187A 26106.24754737 .00000837 00000-0 10680-3 0 9993
2 58496 97.9259 189.4950 0011205 354.3531 5.7555 14.84088920127937
Epoch: Apr 16, 2026 • Age: 12 hours

Current Status

Altitude 626.7 km
Velocity 7.54 km/s
Sub-Earth Point 7.08°N, 104.58°W
Launch Date Dec 4, 2023
Age 2.3 years
Type other

Technical Details

Classification Payload
Mass 35.00 kg
Dry Mass 35.00 kg
Total Mass 35.00 kg
Length 0.30 m
Diameter 0.30 m
Span 1.00 m
Shape Box + 2 pan
Manufacturer WEINA
Bus Type MN35
Phase Status In Orbit
Owner/State TYSK/CN

Most Searched